Regional Weather Roundup
Issued by NWS Grand Forks, ND

Home | Current Version | Previous Version | Graphics & Text | Print | Product List | Glossary On
Versions: 1 2 3 4 5 6 7 8 9 10 11 12 13 14 15 16 17 18 19 20 21 22 23 24 25 26 27 28 29 30 31 32 33 34 35 36 37 38 39 40 41 42 43 44 45 46 47 48 49 50
000
ASUS43 KFGF 020610
RWRFGF
PRAIRIE TO PINES  WEATHER ROUNDUP
NATIONAL WEATHER SERVICE EASTERN NORTH DAKOTA/GRAND FORKS ND
100 AM CDT TUE SEP 02 2014

 **SATELLITE DATA USED TO AUGMENT SKY COVER AT AUTOMATED STATIONS**
 *****  WEATHER ACROSS EASTERN NORTH DAKOTA  *****

CITY           SKY/WX    TMP DP  RH WIND       PRES   REMARKS
GRAND FORKS    FAIR      54  49  83 SW6       29.76S
6HR MIN TEMP:  54; 6HR MAX TEMP:  72;

GRAND FRKS AFB FAIR      52  51  99 W7        29.77F
GRAND FRKS NWS   N/A     54 N/A N/A W3          N/A
DEVILS LAKE    FAIR      59  48  67 W9        29.77F
6HR MIN TEMP:  57; 6HR MAX TEMP:  70;

FARGO          FAIR      55  53  93 SW6       29.80S
WAHPETON ARPT  FAIR      54  50  87 SW3       29.83R
$$

 ***** WEATHER ACROSS CENTRAL AND WESTERN NORTH DAKOTA  *****

CITY           SKY/WX    TMP DP  RH WIND       PRES   REMARKS
BISMARCK       CLEAR     53  50  89 CALM      29.87S
6HR MIN TEMP:  53; 6HR MAX TEMP:  72;

MINOT          FAIR      56  47  71 SW10      29.80S
6HR MIN TEMP:  55; 6HR MAX TEMP:  71;

JAMESTOWN      FAIR      55  50  83 SW3       29.83R
6HR MIN TEMP:  54; 6HR MAX TEMP:  69;

MINOT AFB      FAIR      49  48  97 W6        29.80S
GARRISON         N/A     55  52  89 W6        29.83F
WILLISTON      MOCLDY    55  50  83 S3        29.82S
6HR MIN TEMP:  54; 6HR MAX TEMP:  69; 6HR PCP: TRACE;

DICKINSON      CLEAR     52  46  80 S9        29.87F
6HR MIN TEMP:  51; 6HR MAX TEMP:  67;

HETTINGER      CLEAR     51  45  79 SW5       29.93S
6HR MIN TEMP:  48; 6HR MAX TEMP:  65;

$$

 *****  OTHER AIRPORT OBSERVATIONS IN OUR AREA  *****

CITY           SKY/WX    TMP DP  RH WIND       PRES   REMARKS
WALHALLA         N/A     55  50  82 SW3       29.74F
GRAFTON AIRPOR FAIR      54  50  87 SW8       29.75S
VALLEY CITY AR FAIR      52  52 100 CALM      29.83R
CANDO          FAIR      48  46  93 W6        29.79S
CAVALIER APRT  FAIR      55  48  76 SW5       29.74S
GWINNER        CLEAR     55  55 100 W6        29.85R
SHEYENNE NWR     N/A     53  52  97 W3        29.95S
ROLLA          FAIR      50  48  93 W9        29.80R
 ***** THE ABOVE OBSERVATIONS ARE NON NWS ARE NOT QUALITY
       CONTROLLED AND MAY MIS-REPORT RAIN FOR SNOW...
$$

  *****  WEATHER ACROSS NORTHERN MINNESOTA  *****

CITY           SKY/WX    TMP DP  RH WIND       PRES   REMARKS
FLAG ISLAND    FAIR      57  54  88 SW13      29.69R
WARROAD        FAIR      54  50  87 SW9       29.73S
ROSEAU           N/A     57  52  82 SW7       29.73S
HALLOCK        FAIR      52  48  87 CALM      29.73F
THF RVR FALLS  FAIR      55  52  88 SW9       29.77S
6HR MIN TEMP:  54; 6HR MAX TEMP:  64;

BAUDETTE       FAIR      54  51  90 SW7       29.72F
6HR MIN TEMP:  49; 6HR MAX TEMP:  61;

WASKISH        FAIR      55  54  94 CALM      29.75F
CROOKSTON      FAIR      52  52 100 S3        29.78S
$$
  *****  WEATHER ACROSS CENTRAL AND WEST MINNESOTA  *****

CITY           SKY/WX    TMP DP  RH WIND       PRES   REMARKS
FOSSTON        FAIR      48  46  93 S6        29.80S
BEMIDJI        FAIR      53  49  86 W5        29.78S
PARK RAPIDS    FAIR      51  50  96 CALM      29.81R
6HR MIN TEMP:  50; 6HR MAX TEMP:  59; 6HR PCP:  0.01;

ELBOW LAKE     FAIR      56  55  93 SW3       29.83R
6HR MIN TEMP:  56; 6HR MAX TEMP:  70;

WADENA         FAIR      52  52 100 CALM      29.81S
DETROIT LAKES  FAIR      54  52  94 S6        29.83R
MOORHEAD       FAIR      57  57 100 SW3       29.82R
FERGUS FALLS   FAIR      55  54  94 CALM      29.83R
MORRIS MN      FAIR      61  57  88 W5        29.84R
STAPLES        FAIR      52  52 100 CALM      29.81R
$$
  *****  WEATHER ELSEWHERE ACROSS MINNESOTA  *****

CITY           SKY/WX    TMP DP  RH WIND       PRES   REMARKS
DULUTH         FAIR      56  50  80 W7        29.77R
6HR MIN TEMP:  55; 6HR MAX TEMP:  68;

INTRNTL FALLS  FAIR      49  48  97 SW6       29.73S
6HR MIN TEMP:  47; 6HR MAX TEMP:  65; 6HR PCP:  0.01;

ELY            FAIR      52  48  87 CALM      29.75S
CLOQUET        FAIR      55  52  88 W6        29.78S
WHEATON        FAIR      55  54  94 SW5       29.86R
BRAINERD       FAIR      55  53  93 W5        29.81R
6HR MIN TEMP:  54; 6HR MAX TEMP:  69; 6HR PCP:  0.37;

HIBBING        FAIR      49  47  93 W5        29.77S FOG
6HR MIN TEMP:  48; 6HR MAX TEMP:  66;

ALEXANDRIA     FAIR      57  54  89 SW6       29.84R
6HR MIN TEMP:  57; 6HR MAX TEMP:  66;

SAINT CLOUD    FAIR      60  56  86 S5        29.82R
6HR MIN TEMP:  60; 6HR MAX TEMP:  74;

MINNEAPOLIS    FAIR      65  59  81 W8        29.82R
6HR MIN TEMP:  65; 6HR MAX TEMP:  75;

$$

  *****  WEATHER ACROSS SOUTH DAKOTA  *****

CITY           SKY/WX    TMP DP  RH WIND       PRES   REMARKS
SIOUX FALLS    LGT RAIN  62  55  77 W7        29.88F
6HR MIN TEMP:  61; 6HR MAX TEMP:  74; 6HR PCP: TRACE;

BROOKINGS      NOT AVBL
WATERTOWN      FAIR      59  54  83 W6        29.88R
6HR MIN TEMP:  59; 6HR MAX TEMP:  67;

HURON          CLOUDY    59  55  87 W7        29.88R
6HR MIN TEMP:  59; 6HR MAX TEMP:  62; 6HR PCP:  0.05;

SISSETON         N/A     60  56  86 W6        29.84R
ABERDEEN       PTCLDY    52  52 100 SW3       29.87R
6HR MIN TEMP:  52; 6HR MAX TEMP:  73;

MITCHELL       CLOUDY    61  56  83 W6        29.92R
PIERRE         CLEAR     57  52  83 SW5       29.92R
6HR MIN TEMP:  53; 6HR MAX TEMP:  68;

MOBRIDGE       CLEAR     51  50  96 CALM      29.89R
RAPID CITY     CLEAR     47  45  93 CALM      30.00F
6HR MIN TEMP:  47; 6HR MAX TEMP:  65;

$$

  *****  SOME WEATHER IN NEARBY STATES *****

CITY           SKY/WX    TMP DP  RH WIND       PRES   REMARKS
GLASGOW MT     CLOUDY    62  48  60 S8        29.79F
6HR MIN TEMP:  61; 6HR MAX TEMP:  67; 6HR PCP: TRACE;

GREAT FALLS MT CLEAR     53  37  54 SW9       29.92S
6HR MIN TEMP:  50; 6HR MAX TEMP:  70;

CHEYENNE WY    CLEAR     48  43  82 W6        30.18S
6HR MIN TEMP:  47; 6HR MAX TEMP:  73;

SCOTTSBLUFF NE CLEAR     49  46  90 CALM      30.09S
6HR MIN TEMP:  49; 6HR MAX TEMP:  71; 6HR PCP: TRACE;

OMAHA NE       MOCLDY    65  58  78 N10       29.96R
6HR MIN TEMP:  63; 6HR MAX TEMP:  75; 6HR PCP: TRACE;

DES MOINES IA  FAIR      66  62  87 W3        29.90R
6HR MIN TEMP:  66; 6HR MAX TEMP:  76; 6HR PCP: TRACE;

DAVENPORT IA   FAIR      67  65  93 N5        29.87R
6HR MIN TEMP:  67; 6HR MAX TEMP:  75; 6HR PCP: TRACE;

CHICAGO IL     MOCLDY    71  65  81 SW3       29.86S
6HR MIN TEMP:  70; 6HR MAX TEMP:  79; 6HR PCP:  0.26;

EAU CLAIRE WI  FAIR      59  58  96 SW7       29.82R
6HR MIN TEMP:  59; 6HR MAX TEMP:  71;

LA CROSSE WI   FAIR      63  60  90 SE5       29.85R
6HR MIN TEMP:  63; 6HR MAX TEMP:  76;

$$

  *****  SOME NATIONAL WEATHER *****

CITY           SKY/WX    TMP DP  RH WIND       PRES   REMARKS
LA GUARDIA NY  FAIR      80  73  79 SW7       29.92F
6HR MIN TEMP:  80; 6HR MAX TEMP:  84;

RALEIGH NC     FAIR      78  72  81 SW10      30.06S
6HR MIN TEMP:  77; 6HR MAX TEMP:  83;

ATLANTA GA     FAIR      74  70  87 S3        30.10F
6HR MIN TEMP:  74; 6HR MAX TEMP:  80; 6HR PCP: TRACE;

NEW ORLEANS LA MOCLDY    79  74  84 S6        30.01F
6HR MIN TEMP:  79; 6HR MAX TEMP:  83; 6HR PCP: TRACE;

OKLAHOMA CITY  MOCLDY    82  67  60 S13       29.84F
6HR MIN TEMP:  82; 6HR MAX TEMP:  94;

ALBUQUERQUE NM CLEAR     76  39  26 SE3       30.08S
6HR MIN TEMP:  75; 6HR MAX TEMP:  91;

SALT LAKE CITY CLEAR     64  34  32 S9        30.04F
6HR MIN TEMP:  63; 6HR MAX TEMP:  79;

LOS ANGELES CA CLEAR     70  65  84 S3        29.83R
6HR MIN TEMP:  70; 6HR MAX TEMP:  76;




USA.gov is the U.S. government's official web portal to all federal, state and local government web resources and services.